Regional Weather Roundup
Issued by NWS

Home | Current Version | Previous Version | Text Only | Print | Product List | Glossary Off
Versions: 1 2 3 4 5 6 7 8 9 10 11 12 13 14 15 16 17 18 19 20 21 22 23 24 25 26 27 28 29 30 31 32 33 34 35 36 37 38 39 40 41 42 43 44 45 46 47 48 49 50

000
ASUS43 KLMK 292302
RWRKY
KENTUCKY REGIONAL WEATHER ROUNDUP
NATIONAL WEATHER SERVICE LOUISVILLE KY
700 PM EDT THU SEP 29 2016

NOTE "FAIR" INDICATES FEW OR NO CLOUDS BELOW 12,000 FEET
WITH NO SIGNIFICANT WEATHER AND/OR OBSTRUCTIONS TO VISIBILITY.

KYZ001>023-026-027-061>063-070>075-300000-
WESTERN AND SOUTH CENTRAL KENTUCKY

CITY           SKY/WX    TMP DP  RH WIND       PRES   REMARKS
PADUCAH        MOCLDY    66  55  67 NW10      30.11R
HENDERSON      PTCLDY    64  48  55 N6        30.09R
OWENSBORO      NOT AVBL
HOPKINSVILLE   PTCLDY    61  55  81 W2        30.10S
BOWLING GREEN  CLEAR     62  52  69 NW3       30.10R
GLASGOW        HVY RAIN  56  52  88 NW7       30.11R
$$

KYZ024-025-028>034-038-045-046-053-300000-
NORTH CENTRAL KENTUCKY

CITY           SKY/WX    TMP DP  RH WIND       PRES   REMARKS
LOUISVILLE/SDF MOCLDY    64  48  56 SW6       30.08R
LOUISVILLE/LOU CLOUDY    64  52  64 VRB3      30.09R
FORT KNOX      MOCLDY    56  55  95 W1        30.08R
$$

KYZ035>037-039>044-047>052-055>060-089>105-300000-
NORTHEAST KENTUCKY

CITY           SKY/WX    TMP DP  RH WIND       PRES   REMARKS
LEXINGTON      CLOUDY    61  51  70 NW3       30.08R
COVINGTON      MOCLDY    62  53  72 N3        30.07S
FRANKFORT      CLOUDY    62  50  64 CALM      30.07R
$$

KYZ054-064>069-076>088-106>120-300000-
SOUTHEAST KENTUCKY

CITY           SKY/WX    TMP DP  RH WIND       PRES   REMARKS
JACKSON        CLOUDY    58  53  84 CALM      30.08R
LONDON         MOCLDY    60  50  69 CALM      30.07R
SOMERSET       CLOUDY    59  48  67 W5        30.10R
MIDDLESBORO    MOCLDY    60  50  68 NW3       30.07S
MONTICELLO     CLOUDY    59  52  77 MISG      30.11R
$$




USA.gov is the U.S. government's official web portal to all federal, state and local government web resources and services.